Time,TemperatureF,DewpointF,PressureIn,WindDirection,WindDirectionDegrees,WindSpeedMPH,WindSpeedGustMPH,Humidity,HourlyPrecipIn,Conditions,Clouds,dailyrainin,SoftwareType,DateUTC
2013-08-02 00:00:00,68.6,62.2,29.96,SE,124,0.0,0.0,80,0.00,,CLR,0.00,VWS V14.01,2013-08-02 05:00:00,
2013-08-02 00:02:00,68.5,61.7,29.96,SE,124,0.0,0.0,79,0.00,,SCT090,0.00,VWS V14.01,2013-08-02 05:02:00,
2013-08-02 00:07:00,68.5,61.7,29.95,SE,124,0.0,0.0,79,0.00,,SCT090,0.00,VWS V14.01,2013-08-02 05:07:00,
2013-08-02 00:10:00,68.5,61.7,29.95,SE,124,0.0,0.0,79,0.00,,CLR,0.00,VWS V14.01,2013-08-02 05:10:00,
2013-08-02 00:12:00,68.4,61.6,29.95,SE,124,0.0,0.0,79,0.00,,SCT090,0.00,VWS V14.01,2013-08-02 05:12:00,
2013-08-02 00:17:00,68.3,61.5,29.95,SE,124,0.0,0.0,79,0.00,,SCT090,0.00,VWS V14.01,2013-08-02 05:17:00,
2013-08-02 00:20:00,68.4,61.6,29.95,SE,124,0.0,0.0,79,0.00,,CLR,0.00,VWS V14.01,2013-08-02 05:20:00,
2013-08-02 00:22:00,68.3,61.5,29.95,SE,124,0.0,0.0,79,0.00,,BKN090,0.00,VWS V14.01,2013-08-02 05:22:00,
2013-08-02 00:28:00,68.3,61.5,29.95,SE,124,0.0,0.0,79,0.00,,BKN090,0.00,VWS V14.01,2013-08-02 05:28:00,
2013-08-02 00:30:00,68.2,61.5,29.95,SE,124,0.0,0.0,79,0.00,,CLR,0.00,VWS V14.01,2013-08-02 05:30:00,
2013-08-02 00:33:00,68.1,61.3,29.95,SE,124,0.0,0.0,79,0.00,,BKN090,0.00,VWS V14.01,2013-08-02 05:33:00,
2013-08-02 00:38:00,68.1,61.3,29.95,SE,124,0.0,0.0,79,0.00,,BKN090,0.00,VWS V14.01,2013-08-02 05:38:00,
2013-08-02 00:40:00,68.1,61.3,29.95,SE,124,0.0,0.0,79,0.00,,CLR,0.00,VWS V14.01,2013-08-02 05:40:00,
2013-08-02 00:43:00,68.0,61.6,29.96,SE,124,0.0,0.0,80,0.00,,OVC100,0.00,VWS V14.01,2013-08-02 05:43:00,
2013-08-02 00:48:00,67.9,61.5,29.96,SE,124,0.0,0.0,80,0.00,,OVC100,0.00,VWS V14.01,2013-08-02 05:48:00,
2013-08-02 00:50:00,67.9,61.5,29.96,SE,124,0.0,0.0,80,0.00,,CLR,0.00,VWS V14.01,2013-08-02 05:50:00,
2013-08-02 00:53:00,67.9,61.5,29.95,SE,124,0.0,0.0,80,0.00,,OVC100,0.00,VWS V14.01,2013-08-02 05:53:00,
2013-08-02 00:58:00,67.8,61.4,29.95,SE,124,0.0,0.0,80,0.00,,OVC100,0.00,VWS V14.01,2013-08-02 05:58:00,
2013-08-02 01:00:00,67.8,61.4,29.95,SE,124,0.0,0.0,80,0.00,,CLR,0.00,VWS V14.01,2013-08-02 06:00:00,
2013-08-02 01:03:00,67.8,61.4,29.94,SE,124,0.0,0.0,80,0.00,,OVC110,0.00,VWS V14.01,2013-08-02 06:03:00,
2013-08-02 01:08:00,67.8,61.4,29.94,SE,124,0.0,0.0,80,0.00,,OVC110,0.00,VWS V14.01,2013-08-02 06:08:00,
2013-08-02 01:10:00,67.8,61.4,29.94,SE,124,0.0,0.0,80,0.00,,CLR,0.00,VWS V14.01,2013-08-02 06:10:00,
2013-08-02 01:14:00,67.7,61.3,29.94,SE,124,0.0,0.0,80,0.00,,OVC110,0.00,VWS V14.01,2013-08-02 06:14:00,
2013-08-02 01:19:00,67.7,61.3,29.94,SE,138,0.0,0.0,80,0.00,,OVC110,0.00,VWS V14.01,2013-08-02 06:19:00,
2013-08-02 01:20:00,67.7,61.3,29.94,SE,124,0.0,0.0,80,0.00,,CLR,0.00,VWS V14.01,2013-08-02 06:20:00,
2013-08-02 01:24:00,67.7,61.3,29.94,SSE,165,0.0,0.0,80,0.00,,OVC110,0.00,VWS V14.01,2013-08-02 06:24:00,
2013-08-02 01:29:00,67.7,61.3,29.94,SSE,155,0.0,1.0,80,0.00,,OVC110,0.00,VWS V14.01,2013-08-02 06:29:00,
2013-08-02 01:30:00,67.7,61.3,29.94,SSE,151,0.0,1.0,80,0.00,,CLR,0.00,VWS V14.01,2013-08-02 06:30:00,
2013-08-02 01:34:00,67.8,61.4,29.94,West,280,0.0,1.0,80,0.00,,OVC110,0.00,VWS V14.01,2013-08-02 06:34:00,
2013-08-02 01:39:00,68.2,61.5,29.93,SSE,151,0.0,2.0,79,0.00,,OVC110,0.00,VWS V14.01,2013-08-02 06:39:00,
2013-08-02 01:40:00,68.1,61.3,29.93,SSE,153,1.0,3.0,79,0.00,,CLR,0.00,VWS V14.01,2013-08-02 06:40:00,
2013-08-02 01:44:00,68.4,61.6,29.93,South,190,0.0,2.0,79,0.00,,OVC110,0.00,VWS V14.01,2013-08-02 06:44:00,
2013-08-02 01:49:00,68.8,61.3,29.93,SW,223,0.0,4.0,77,0.00,,OVC110,0.00,VWS V14.01,2013-08-02 06:49:00,
2013-08-02 01:50:00,68.6,61.5,29.93,WSW,246,1.0,4.0,78,0.00,,CLR,0.00,VWS V14.01,2013-08-02 06:50:00,
2013-08-02 01:55:00,69.1,61.6,29.93,SW,228,0.0,4.0,77,0.00,,OVC110,0.00,VWS V14.01,2013-08-02 06:55:00,
2013-08-02 02:00:00,69.3,61.8,29.94,West,264,0.0,0.0,77,0.00,,SCT110,0.00,VWS V14.01,2013-08-02 07:00:00,
2013-08-02 02:05:00,69.2,61.7,29.94,SW,228,0.0,1.0,77,0.00,,SCT110,0.00,VWS V14.01,2013-08-02 07:05:00,
2013-08-02 02:10:00,69.2,61.7,29.93,West,260,0.0,1.0,77,0.00,,SCT110,0.00,VWS V14.01,2013-08-02 07:10:00,
2013-08-02 02:15:00,69.2,61.7,29.93,WSW,250,0.0,1.0,77,0.00,,SCT110,0.00,VWS V14.01,2013-08-02 07:15:00,
2013-08-02 02:20:00,69.0,61.5,29.93,WSW,253,0.0,1.0,77,0.00,,CLR,0.00,VWS V14.01,2013-08-02 07:20:00,
2013-08-02 02:25:00,69.0,61.5,29.94,WSW,242,0.0,1.0,77,0.00,,CLR,0.00,VWS V14.01,2013-08-02 07:25:00,
2013-08-02 02:30:00,68.9,61.4,29.94,SSW,203,0.0,1.0,77,0.00,,CLR,0.00,VWS V14.01,2013-08-02 07:30:00,
2013-08-02 02:31:00,68.9,61.4,29.93,SSW,203,0.0,0.0,77,0.00,,CLR,0.00,VWS V14.01,2013-08-02 07:31:00,
2013-08-02 02:36:00,68.7,61.6,29.93,SSW,203,0.0,2.0,78,0.00,,CLR,0.00,VWS V14.01,2013-08-02 07:36:00,
2013-08-02 02:40:00,68.7,61.6,29.93,SSW,203,0.0,2.0,78,0.00,,CLR,0.00,VWS V14.01,2013-08-02 07:40:00,
2013-08-02 02:41:00,68.6,61.5,29.93,SSW,203,0.0,0.0,78,0.00,,CLR,0.00,VWS V14.01,2013-08-02 07:41:00,
2013-08-02 02:46:00,68.5,61.7,29.92,SSW,205,0.0,0.0,79,0.00,,CLR,0.00,VWS V14.01,2013-08-02 07:46:00,
2013-08-02 02:50:00,68.4,61.6,29.92,SSW,204,0.0,0.0,79,0.00,,CLR,0.00,VWS V14.01,2013-08-02 07:50:00,
2013-08-02 02:51:00,68.3,61.9,29.92,SSW,197,0.0,2.0,80,0.00,,CLR,0.00,VWS V14.01,2013-08-02 07:51:00,
2013-08-02 02:56:00,68.4,62.0,29.92,SSE,159,0.0,2.0,80,0.00,,CLR,0.00,VWS V14.01,2013-08-02 07:56:00,
2013-08-02 03:00:00,68.3,61.9,29.92,SSE,159,0.0,2.0,80,0.00,,CLR,0.00,VWS V14.01,2013-08-02 08:00:00,
2013-08-02 03:02:00,68.4,62.3,29.92,SSE,160,0.0,0.0,81,0.00,,CLR,0.00,VWS V14.01,2013-08-02 08:02:00,
2013-08-02 03:07:00,68.4,62.3,29.92,SW,229,0.0,1.0,81,0.00,,CLR,0.00,VWS V14.01,2013-08-02 08:07:00,
2013-08-02 03:10:00,68.4,62.3,29.92,SW,229,0.0,1.0,81,0.00,,CLR,0.00,VWS V14.01,2013-08-02 08:10:00,
2013-08-02 03:12:00,68.5,62.5,29.92,SW,231,0.0,1.0,81,0.00,,CLR,0.00,VWS V14.01,2013-08-02 08:12:00,
2013-08-02 03:17:00,68.5,62.5,29.92,SW,232,0.0,2.0,81,0.00,,CLR,0.00,VWS V14.01,2013-08-02 08:17:00,
2013-08-02 03:20:00,68.5,62.5,29.92,WSW,249,0.0,2.0,81,0.00,,CLR,0.00,VWS V14.01,2013-08-02 08:20:00,
2013-08-02 03:22:00,68.5,62.5,29.92,WSW,249,0.0,1.0,81,0.00,,CLR,0.00,VWS V14.01,2013-08-02 08:22:00,
2013-08-02 03:27:00,68.7,62.6,29.92,WSW,251,0.0,2.0,81,0.00,,CLR,0.00,VWS V14.01,2013-08-02 08:27:00,
2013-08-02 03:30:00,68.7,62.6,29.92,WSW,251,0.0,2.0,81,0.00,,CLR,0.00,VWS V14.01,2013-08-02 08:30:00,
2013-08-02 03:32:00,68.8,62.4,29.92,WSW,242,0.0,1.0,80,0.00,,CLR,0.00,VWS V14.01,2013-08-02 08:32:00,
2013-08-02 03:38:00,68.8,62.4,29.92,WSW,242,0.0,1.0,80,0.00,,CLR,0.00,VWS V14.01,2013-08-02 08:38:00,
2013-08-02 03:40:00,68.8,62.4,29.92,WSW,242,0.0,1.0,80,0.00,,CLR,0.00,VWS V14.01,2013-08-02 08:40:00,
2013-08-02 03:43:00,68.8,62.4,29.92,SSW,197,0.0,1.0,80,0.00,,CLR,0.00,VWS V14.01,2013-08-02 08:43:00,
2013-08-02 03:48:00,68.7,62.6,29.92,SSW,210,0.0,1.0,81,0.00,,CLR,0.00,VWS V14.01,2013-08-02 08:48:00,
2013-08-02 03:50:00,68.7,62.6,29.92,SSW,210,0.0,1.0,81,0.00,,CLR,0.00,VWS V14.01,2013-08-02 08:50:00,
2013-08-02 03:53:00,68.7,62.6,29.92,SW,229,0.0,2.0,81,0.00,,CLR,0.00,VWS V14.01,2013-08-02 08:53:00,
2013-08-02 03:58:00,68.6,62.5,29.92,SW,219,0.0,0.0,81,0.00,,CLR,0.00,VWS V14.01,2013-08-02 08:58:00,
2013-08-02 04:00:00,68.6,62.5,29.92,SW,219,0.0,2.0,81,0.00,,CLR,0.00,VWS V14.01,2013-08-02 09:00:00,
2013-08-02 04:03:00,68.7,62.3,29.92,SW,233,0.0,3.0,80,0.00,,CLR,0.00,VWS V14.01,2013-08-02 09:03:00,
2013-08-02 04:08:00,68.8,62.4,29.92,SSW,209,0.0,1.0,80,0.00,,CLR,0.00,VWS V14.01,2013-08-02 09:08:00,
2013-08-02 04:10:00,68.7,62.3,29.92,SSW,208,1.0,3.0,80,0.00,,CLR,0.00,VWS V14.01,2013-08-02 09:10:00,
2013-08-02 04:14:00,68.9,62.5,29.92,SSW,200,0.0,4.0,80,0.00,,CLR,0.00,VWS V14.01,2013-08-02 09:14:00,
2013-08-02 04:19:00,69.0,62.6,29.92,SSW,208,0.0,0.0,80,0.00,,CLR,0.00,VWS V14.01,2013-08-02 09:19:00,
2013-08-02 04:20:00,68.9,62.5,29.92,SSW,209,0.0,4.0,80,0.00,,CLR,0.00,VWS V14.01,2013-08-02 09:20:00,
2013-08-02 04:24:00,69.0,62.6,29.92,SSW,195,0.0,0.0,80,0.00,,BKN120,0.00,VWS V14.01,2013-08-02 09:24:00,
2013-08-02 04:29:00,69.0,62.6,29.92,SSW,204,0.0,1.0,80,0.00,,BKN120,0.00,VWS V14.01,2013-08-02 09:29:00,
2013-08-02 04:30:00,69.0,62.2,29.92,West,269,1.0,2.0,79,0.00,,CLR,0.00,VWS V14.01,2013-08-02 09:30:00,
2013-08-02 04:34:00,69.1,62.3,29.92,SE,136,0.0,4.0,79,0.00,,BKN120,0.00,VWS V14.01,2013-08-02 09:34:00,
2013-08-02 04:40:00,69.0,62.6,29.91,SSE,149,0.0,2.0,80,0.00,,OVC120,0.00,VWS V14.01,2013-08-02 09:40:00,
2013-08-02 04:45:00,69.1,62.7,29.92,SSE,162,0.0,2.0,80,0.00,,OVC120,0.00,VWS V14.01,2013-08-02 09:45:00,
2013-08-02 04:50:00,69.2,62.4,29.92,WSW,249,1.0,4.0,79,0.00,,OVC120,0.00,VWS V14.01,2013-08-02 09:50:00,
2013-08-02 04:55:00,69.2,62.4,29.92,SSW,205,0.0,4.0,79,0.00,,OVC120,0.00,VWS V14.01,2013-08-02 09:55:00,
2013-08-02 05:00:00,69.4,62.2,29.92,SSW,194,1.0,3.0,78,0.00,,OVC120,0.00,VWS V14.01,2013-08-02 10:00:00,
2013-08-02 05:05:00,69.7,62.5,29.92,WSW,245,1.0,4.0,78,0.00,,OVC120,0.00,VWS V14.01,2013-08-02 10:05:00,
2013-08-02 05:10:00,70.0,62.5,29.92,SSW,207,1.0,6.0,77,0.00,,OVC120,0.00,VWS V14.01,2013-08-02 10:10:00,
2013-08-02 05:15:00,70.2,62.7,29.93,WSW,252,0.0,6.0,77,0.00,,OVC120,0.00,VWS V14.01,2013-08-02 10:15:00,
2013-08-02 05:20:00,70.3,62.4,29.92,WSW,249,1.0,2.0,76,0.00,,OVC120,0.00,VWS V14.01,2013-08-02 10:20:00,
2013-08-02 05:26:00,70.5,62.2,29.92,WSW,245,3.0,6.0,75,0.00,,OVC120,0.00,VWS V14.01,2013-08-02 10:26:00,
2013-08-02 05:30:00,70.6,62.3,29.92,WSW,239,0.0,6.0,75,0.00,,CLR,0.00,VWS V14.01,2013-08-02 10:30:00,
2013-08-02 05:31:00,70.5,62.2,29.92,WSW,238,0.0,2.0,75,0.00,,OVC120,0.00,VWS V14.01,2013-08-02 10:31:00,
2013-08-02 05:36:00,70.6,61.9,29.93,WSW,255,2.0,6.0,74,0.00,,OVC120,0.00,VWS V14.01,2013-08-02 10:36:00,
2013-08-02 05:40:00,70.7,62.0,29.92,SSW,210,0.0,6.0,74,0.00,,CLR,0.00,VWS V14.01,2013-08-02 10:40:00,
2013-08-02 05:41:00,70.7,62.4,29.92,West,265,3.0,4.0,75,0.00,,BKN120,0.00,VWS V14.01,2013-08-02 10:41:00,
2013-08-02 05:46:00,70.7,62.0,29.92,West,263,1.0,4.0,74,0.00,,BKN120,0.00,VWS V14.01,2013-08-02 10:46:00,
2013-08-02 05:50:00,70.7,62.4,29.92,NW,319,1.0,4.0,75,0.00,,CLR,0.00,VWS V14.01,2013-08-02 10:50:00,
2013-08-02 05:51:00,70.6,62.3,29.92,West,280,0.0,2.0,75,0.00,,BKN120,0.00,VWS V14.01,2013-08-02 10:51:00,
2013-08-02 05:56:00,70.5,62.2,29.92,SSW,198,1.0,4.0,75,0.00,,BKN120,0.00,VWS V14.01,2013-08-02 10:56:00,
2013-08-02 06:00:00,70.5,62.2,29.92,West,274,1.0,4.0,75,0.00,,CLR,0.00,VWS V14.01,2013-08-02 11:00:00,
2013-08-02 06:01:00,70.5,62.2,29.92,WNW,284,0.0,5.0,75,0.00,,OVC120,0.00,VWS V14.01,2013-08-02 11:01:00,
2013-08-02 06:07:00,70.4,62.1,29.92,West,263,3.0,5.0,75,0.00,,OVC120,0.00,VWS V14.01,2013-08-02 11:07:00,
2013-08-02 06:10:00,70.4,62.1,29.92,NNW,334,0.0,5.0,75,0.00,,CLR,0.00,VWS V14.01,2013-08-02 11:10:00,
2013-08-02 06:12:00,70.3,62.0,29.92,WSW,246,1.0,4.0,75,0.00,,OVC120,0.00,VWS V14.01,2013-08-02 11:12:00,
2013-08-02 06:17:00,70.3,62.0,29.91,West,276,0.0,4.0,75,0.00,,OVC120,0.00,VWS V14.01,2013-08-02 11:17:00,
2013-08-02 06:20:00,70.3,62.0,29.91,WSW,243,2.0,4.0,75,0.00,,CLR,0.00,VWS V14.01,2013-08-02 11:20:00,
2013-08-02 06:22:00,70.2,61.9,29.91,WSW,238,2.0,3.0,75,0.00,,BKN120,0.00,VWS V14.01,2013-08-02 11:22:00,
2013-08-02 06:27:00,70.1,62.2,29.91,WSW,253,1.0,3.0,76,0.00,,BKN120,0.00,VWS V14.01,2013-08-02 11:27:00,
2013-08-02 06:30:00,70.1,62.2,29.91,SW,225,1.0,3.0,76,0.00,,CLR,0.00,VWS V14.01,2013-08-02 11:30:00,
2013-08-02 06:32:00,70.0,62.1,29.91,SSW,209,1.0,2.0,76,0.00,,BKN120,0.00,VWS V14.01,2013-08-02 11:32:00,
2013-08-02 06:33:00,70.0,62.5,29.91,WSW,238,1.0,2.0,77,0.00,,BKN120,0.00,VWS V14.01,2013-08-02 11:33:00,
2013-08-02 06:38:00,69.9,62.4,29.90,West,262,0.0,3.0,77,0.00,,BKN120,0.00,VWS V14.01,2013-08-02 11:38:00,
2013-08-02 06:40:00,69.9,62.4,29.90,West,262,0.0,3.0,77,0.00,,CLR,0.00,VWS V14.01,2013-08-02 11:40:00,
2013-08-02 06:43:00,69.8,62.6,29.91,WSW,255,0.0,2.0,78,0.00,,SCT120,0.00,VWS V14.01,2013-08-02 11:43:00,
2013-08-02 06:48:00,69.8,62.3,29.91,West,271,1.0,1.0,77,0.00,,SCT120,0.00,VWS V14.01,2013-08-02 11:48:00,
2013-08-02 06:50:00,69.8,62.3,29.91,West,271,1.0,5.0,77,0.00,,CLR,0.00,VWS V14.01,2013-08-02 11:50:00,
2013-08-02 06:53:00,69.8,62.6,29.91,WNW,287,0.0,2.0,78,0.00,,SCT120,0.00,VWS V14.01,2013-08-02 11:53:00,
2013-08-02 06:58:00,69.9,62.7,29.91,WSW,255,1.0,1.0,78,0.00,,SCT120,0.00,VWS V14.01,2013-08-02 11:58:00,
2013-08-02 07:00:00,69.8,62.6,29.91,SW,233,0.0,2.0,78,0.00,,CLR,0.00,VWS V14.01,2013-08-02 12:00:00,
2013-08-02 07:04:00,69.8,62.6,29.91,WSW,252,1.0,5.0,78,0.00,,SCT120,0.00,VWS V14.01,2013-08-02 12:04:00,
2013-08-02 07:09:00,70.0,62.8,29.91,SW,221,0.0,1.0,78,0.00,,SCT120,0.00,VWS V14.01,2013-08-02 12:09:00,
2013-08-02 07:10:00,70.0,62.8,29.91,SW,221,1.0,5.0,78,0.00,,CLR,0.00,VWS V14.01,2013-08-02 12:10:00,
2013-08-02 07:14:00,70.1,62.9,29.91,West,259,2.0,6.0,78,0.00,,SCT120,0.00,VWS V14.01,2013-08-02 12:14:00,
2013-08-02 07:19:00,70.2,63.0,29.91,WSW,242,0.0,1.0,78,0.00,,SCT120,0.00,VWS V14.01,2013-08-02 12:19:00,
2013-08-02 07:20:00,70.2,63.4,29.91,WNW,283,1.0,6.0,79,0.00,,CLR,0.00,VWS V14.01,2013-08-02 12:20:00,
2013-08-02 07:24:00,70.4,63.2,29.91,West,273,1.0,2.0,78,0.00,,SCT120,0.00,VWS V14.01,2013-08-02 12:24:00,
2013-08-02 07:29:00,70.5,63.3,29.91,WSW,245,3.0,3.0,78,0.00,,SCT120,0.00,VWS V14.01,2013-08-02 12:29:00,
2013-08-02 07:30:00,70.5,63.3,29.91,WSW,252,0.0,3.0,78,0.00,,CLR,0.00,VWS V14.01,2013-08-02 12:30:00,
2013-08-02 07:34:00,70.7,63.5,29.91,WNW,297,0.0,5.0,78,0.00,,SCT120,0.00,VWS V14.01,2013-08-02 12:34:00,
2013-08-02 07:39:00,70.9,63.7,29.91,WSW,257,0.0,3.0,78,0.00,,SCT120,0.00,VWS V14.01,2013-08-02 12:39:00,
2013-08-02 07:40:00,70.9,63.7,29.91,SW,227,2.0,6.0,78,0.00,,CLR,0.00,VWS V14.01,2013-08-02 12:40:00,
2013-08-02 07:44:00,70.9,64.1,29.91,West,271,3.0,4.0,79,0.00,,CLR,0.00,VWS V14.01,2013-08-02 12:44:00,
2013-08-02 07:50:00,70.9,63.7,29.91,SSW,203,1.0,5.0,78,0.00,,CLR,0.00,VWS V14.01,2013-08-02 12:50:00,
2013-08-02 07:55:00,71.0,64.2,29.91,West,273,0.0,5.0,79,0.00,,CLR,0.00,VWS V14.01,2013-08-02 12:55:00,
2013-08-02 08:00:00,71.0,64.2,29.92,WNW,300,2.0,4.0,79,0.00,,SCT100,0.00,VWS V14.01,2013-08-02 13:00:00,
2013-08-02 08:05:00,71.0,64.2,29.92,WSW,245,0.0,4.0,79,0.00,,SCT100,0.00,VWS V14.01,2013-08-02 13:05:00,
2013-08-02 08:10:00,71.1,64.6,29.92,WNW,289,1.0,1.0,80,0.00,,SCT100,0.00,VWS V14.01,2013-08-02 13:10:00,
2013-08-02 08:15:00,71.1,64.6,29.92,WSW,258,0.0,4.0,80,0.00,,SCT100,0.00,VWS V14.01,2013-08-02 13:15:00,
2013-08-02 08:20:00,71.1,64.6,29.92,West,276,1.0,6.0,80,0.00,,BKN110,0.00,VWS V14.01,2013-08-02 13:20:00,
2013-08-02 08:26:00,71.2,65.1,29.92,West,271,0.0,6.0,81,0.00,,BKN110,0.00,VWS V14.01,2013-08-02 13:26:00,
2013-08-02 08:30:00,71.2,65.1,29.92,West,271,0.0,6.0,81,0.00,,CLR,0.00,VWS V14.01,2013-08-02 13:30:00,
2013-08-02 08:31:00,71.2,65.1,29.92,WNW,289,2.0,4.0,81,0.00,,BKN110,0.00,VWS V14.01,2013-08-02 13:31:00,
2013-08-02 08:36:00,71.2,65.1,29.92,SSW,212,1.0,4.0,81,0.00,,BKN110,0.00,VWS V14.01,2013-08-02 13:36:00,
2013-08-02 08:40:00,71.2,65.1,29.92,WSW,257,0.0,5.0,81,0.00,,CLR,0.00,VWS V14.01,2013-08-02 13:40:00,
2013-08-02 08:41:00,71.3,65.5,29.92,West,262,1.0,4.0,82,0.00,,BKN110,0.00,VWS V14.01,2013-08-02 13:41:00,
2013-08-02 08:46:00,71.4,65.6,29.91,West,281,0.0,4.0,82,0.00,,BKN110,0.00,VWS V14.01,2013-08-02 13:46:00,
2013-08-02 08:50:00,71.4,65.6,29.92,West,259,0.0,4.0,82,0.00,,CLR,0.00,VWS V14.01,2013-08-02 13:50:00,
2013-08-02 08:51:00,71.6,65.8,29.91,WSW,240,1.0,3.0,82,0.00,,BKN110,0.00,VWS V14.01,2013-08-02 13:51:00,
2013-08-02 08:56:00,71.8,66.0,29.92,West,260,0.0,4.0,82,0.00,,BKN110,0.00,VWS V14.01,2013-08-02 13:56:00,
2013-08-02 09:00:00,71.9,65.8,29.92,SW,233,2.0,5.0,81,0.00,,CLR,0.00,VWS V14.01,2013-08-02 14:00:00,
2013-08-02 09:01:00,72.0,66.2,29.92,West,267,0.0,3.0,82,0.00,,SCT100,0.00,VWS V14.01,2013-08-02 14:01:00,
2013-08-02 09:07:00,72.3,66.8,29.92,WSW,250,0.0,4.0,83,0.00,,SCT100,0.00,VWS V14.01,2013-08-02 14:07:00,
2013-08-02 09:10:00,72.4,66.9,29.92,WSW,256,0.0,4.0,83,0.00,,CLR,0.00,VWS V14.01,2013-08-02 14:10:00,
2013-08-02 09:12:00,72.6,66.8,29.92,WSW,252,0.0,3.0,82,0.00,,SCT100,0.00,VWS V14.01,2013-08-02 14:12:00,
2013-08-02 09:17:00,72.9,66.7,29.92,West,280,3.0,6.0,81,0.00,,SCT100,0.00,VWS V14.01,2013-08-02 14:17:00,
2013-08-02 09:20:00,72.9,66.4,29.92,West,270,2.0,6.0,80,0.00,,CLR,0.00,VWS V14.01,2013-08-02 14:20:00,
2013-08-02 09:22:00,73.1,67.3,29.92,WNW,293,0.0,2.0,82,0.00,,SCT110,0.00,VWS V14.01,2013-08-02 14:22:00,
2013-08-02 09:27:00,73.5,67.3,29.92,West,262,0.0,3.0,81,0.00,,SCT110,0.00,VWS V14.01,2013-08-02 14:27:00,
2013-08-02 09:30:00,73.7,67.9,29.91,WSW,257,0.0,3.0,82,0.00,,CLR,0.00,VWS V14.01,2013-08-02 14:30:00,
2013-08-02 09:32:00,74.2,67.6,29.91,WNW,302,0.0,2.0,80,0.00,,SCT110,0.00,VWS V14.01,2013-08-02 14:32:00,
2013-08-02 09:37:00,74.7,68.1,29.91,WSW,255,1.0,4.0,80,0.00,,SCT110,0.00,VWS V14.01,2013-08-02 14:37:00,
2013-08-02 09:40:00,74.8,68.2,29.91,West,280,0.0,4.0,80,0.00,,CLR,0.00,VWS V14.01,2013-08-02 14:40:00,
2013-08-02 09:42:00,75.2,68.2,29.91,WSW,253,2.0,3.0,79,0.00,,CLR,0.00,VWS V14.01,2013-08-02 14:42:00,
2013-08-02 09:47:00,75.7,68.7,29.92,West,273,2.0,4.0,79,0.00,,CLR,0.00,VWS V14.01,2013-08-02 14:47:00,
2013-08-02 09:50:00,75.7,68.7,29.92,WSW,255,3.0,4.0,79,0.00,,CLR,0.00,VWS V14.01,2013-08-02 14:50:00,
2013-08-02 09:53:00,76.1,68.8,29.91,West,259,0.0,4.0,78,0.00,,CLR,0.00,VWS V14.01,2013-08-02 14:53:00,
2013-08-02 09:58:00,76.6,68.9,29.92,WNW,293,0.0,4.0,77,0.00,,CLR,0.00,VWS V14.01,2013-08-02 14:58:00,
2013-08-02 10:00:00,76.6,68.9,29.92,WNW,293,0.0,4.0,77,0.00,,CLR,0.00,VWS V14.01,2013-08-02 15:00:00,
2013-08-02 10:03:00,76.9,69.2,29.92,SW,221,5.0,6.0,77,0.00,,CLR,0.00,VWS V14.01,2013-08-02 15:03:00,
2013-08-02 10:08:00,77.1,69.0,29.92,WNW,291,1.0,6.0,76,0.00,,CLR,0.00,VWS V14.01,2013-08-02 15:08:00,
2013-08-02 10:10:00,77.1,69.0,29.92,WNW,291,1.0,6.0,76,0.00,,CLR,0.00,VWS V14.01,2013-08-02 15:10:00,
2013-08-02 10:13:00,77.3,69.2,29.92,West,278,4.0,6.0,76,0.00,,CLR,0.00,VWS V14.01,2013-08-02 15:13:00,
2013-08-02 10:18:00,77.8,69.6,29.92,West,273,3.0,4.0,76,0.00,,CLR,0.00,VWS V14.01,2013-08-02 15:18:00,
2013-08-02 10:20:00,77.8,69.6,29.92,WSW,250,4.0,6.0,76,0.00,,CLR,0.00,VWS V14.01,2013-08-02 15:20:00,
2013-08-02 10:23:00,78.0,69.8,29.92,West,263,1.0,6.0,76,0.00,,CLR,0.00,VWS V14.01,2013-08-02 15:23:00,
2013-08-02 10:28:00,78.3,69.7,29.92,SW,233,3.0,6.0,75,0.00,,CLR,0.00,VWS V14.01,2013-08-02 15:28:00,
2013-08-02 10:30:00,78.3,69.7,29.92,West,266,0.0,6.0,75,0.00,,CLR,0.00,VWS V14.01,2013-08-02 15:30:00,
2013-08-02 10:33:00,78.3,70.1,29.92,WNW,288,2.0,6.0,76,0.00,,CLR,0.00,VWS V14.01,2013-08-02 15:33:00,
2013-08-02 10:39:00,78.6,70.8,29.92,West,262,0.0,3.0,77,0.00,,CLR,0.00,VWS V14.01,2013-08-02 15:39:00,
2013-08-02 10:40:00,78.6,70.8,29.92,WSW,242,1.0,6.0,77,0.00,,CLR,0.00,VWS V14.01,2013-08-02 15:40:00,
2013-08-02 10:44:00,79.2,70.6,29.92,South,191,2.0,5.0,75,0.00,,CLR,0.00,VWS V14.01,2013-08-02 15:44:00,
2013-08-02 10:49:00,79.0,70.8,29.92,WSW,249,3.0,3.0,76,0.00,,CLR,0.00,VWS V14.01,2013-08-02 15:49:00,
2013-08-02 10:50:00,79.1,70.5,29.92,WSW,240,2.0,5.0,75,0.00,,CLR,0.00,VWS V14.01,2013-08-02 15:50:00,
2013-08-02 10:54:00,79.6,71.8,29.92,WSW,240,2.0,6.0,77,0.00,,CLR,0.00,VWS V14.01,2013-08-02 15:54:00,
2013-08-02 10:59:00,80.2,71.2,29.92,NW,322,2.0,7.0,74,0.00,,CLR,0.00,VWS V14.01,2013-08-02 15:59:00,
2013-08-02 11:00:00,80.1,71.1,29.92,NW,307,2.0,7.0,74,0.00,,CLR,0.00,VWS V14.01,2013-08-02 16:00:00,
2013-08-02 11:04:00,80.1,70.7,29.92,West,262,2.0,7.0,73,0.00,,CLR,0.00,VWS V14.01,2013-08-02 16:04:00,
2013-08-02 11:09:00,80.3,71.7,29.92,WSW,257,1.0,8.0,75,0.00,,CLR,0.00,VWS V14.01,2013-08-02 16:09:00,
2013-08-02 11:10:00,80.2,71.6,29.92,West,259,3.0,7.0,75,0.00,,CLR,0.00,VWS V14.01,2013-08-02 16:10:00,
2013-08-02 11:14:00,80.7,72.0,29.92,West,260,0.0,8.0,75,0.00,,CLR,0.00,VWS V14.01,2013-08-02 16:14:00,
2013-08-02 11:19:00,81.0,71.5,29.92,SW,236,3.0,3.0,73,0.00,,SCT110,0.00,VWS V14.01,2013-08-02 16:19:00,
2013-08-02 11:20:00,80.9,71.0,29.92,NW,307,1.0,8.0,72,0.00,,CLR,0.00,VWS V14.01,2013-08-02 16:20:00,
2013-08-02 11:25:00,81.5,72.0,29.91,WNW,288,0.0,4.0,73,0.00,,SCT110,0.00,VWS V14.01,2013-08-02 16:25:00,
2013-08-02 11:30:00,82.0,71.7,29.91,West,276,1.0,4.0,71,0.00,,SCT110,0.00,VWS V14.01,2013-08-02 16:30:00,
2013-08-02 11:35:00,81.6,71.7,29.92,WNW,290,2.0,7.0,72,0.00,,SCT110,0.00,VWS V14.01,2013-08-02 16:35:00,
2013-08-02 11:40:00,81.0,70.7,29.92,West,260,2.0,2.0,71,0.00,,CLR,0.00,VWS V14.01,2013-08-02 16:40:00,
2013-08-02 11:45:00,81.0,71.5,29.91,SW,233,3.0,4.0,73,0.00,,CLR,0.00,VWS V14.01,2013-08-02 16:45:00,
2013-08-02 11:50:00,81.4,72.3,29.91,West,274,1.0,5.0,74,0.00,,CLR,0.00,VWS V14.01,2013-08-02 16:50:00,
2013-08-02 11:55:00,82.2,71.4,29.91,WSW,242,1.0,6.0,70,0.00,,CLR,0.00,VWS V14.01,2013-08-02 16:55:00,
2013-08-02 12:00:00,82.3,72.4,29.91,SW,224,3.0,4.0,72,0.00,,CLR,0.00,VWS V14.01,2013-08-02 17:00:00,
2013-08-02 12:05:00,82.1,71.8,29.91,West,277,0.0,5.0,71,0.00,,CLR,0.00,VWS V14.01,2013-08-02 17:05:00,
2013-08-02 12:10:00,82.3,72.4,29.91,WSW,256,3.0,5.0,72,0.00,,CLR,0.00,VWS V14.01,2013-08-02 17:10:00,
2013-08-02 12:11:00,82.3,72.0,29.91,NW,312,1.0,3.0,71,0.00,,CLR,0.00,VWS V14.01,2013-08-02 17:11:00,
2013-08-02 12:16:00,81.8,70.6,29.91,WSW,249,2.0,7.0,69,0.00,,CLR,0.00,VWS V14.01,2013-08-02 17:16:00,
2013-08-02 12:20:00,81.7,71.4,29.91,SW,225,1.0,7.0,71,0.00,,CLR,0.00,VWS V14.01,2013-08-02 17:20:00,
2013-08-02 12:21:00,81.6,70.9,29.91,WNW,293,1.0,5.0,70,0.00,,CLR,0.00,VWS V14.01,2013-08-02 17:21:00,
2013-08-02 12:26:00,82.1,71.8,29.91,WNW,302,1.0,5.0,71,0.00,,CLR,0.00,VWS V14.01,2013-08-02 17:26:00,
2013-08-02 12:30:00,82.0,70.4,29.91,WSW,244,2.0,8.0,68,0.00,,CLR,0.00,VWS V14.01,2013-08-02 17:30:00,
2013-08-02 12:31:00,81.9,70.7,29.91,WNW,285,0.0,3.0,69,0.00,,CLR,0.00,VWS V14.01,2013-08-02 17:31:00,
2013-08-02 12:36:00,82.2,71.4,29.91,West,274,0.0,5.0,70,0.00,,CLR,0.00,VWS V14.01,2013-08-02 17:36:00,
2013-08-02 12:40:00,82.4,71.6,29.91,North,349,2.0,5.0,70,0.00,,CLR,0.00,VWS V14.01,2013-08-02 17:40:00,
2013-08-02 12:41:00,82.8,71.6,29.91,NW,308,1.0,6.0,69,0.00,,CLR,0.00,VWS V14.01,2013-08-02 17:41:00,
2013-08-02 12:47:00,83.3,71.6,29.91,WSW,243,1.0,6.0,68,0.00,,CLR,0.00,VWS V14.01,2013-08-02 17:47:00,
2013-08-02 12:50:00,83.2,71.6,29.91,NW,326,2.0,6.0,68,0.00,,CLR,0.00,VWS V14.01,2013-08-02 17:50:00,
2013-08-02 12:52:00,82.9,70.8,29.91,SW,235,1.0,5.0,67,0.00,,CLR,0.00,VWS V14.01,2013-08-02 17:52:00,
2013-08-02 12:57:00,83.4,71.3,29.91,SW,219,5.0,7.0,67,0.00,,CLR,0.00,VWS V14.01,2013-08-02 17:57:00,
2013-08-02 13:00:00,83.5,71.8,29.91,West,273,3.0,7.0,68,0.00,,CLR,0.00,VWS V14.01,2013-08-02 18:00:00,
2013-08-02 13:02:00,83.7,71.6,29.91,West,271,2.0,5.0,67,0.00,,CLR,0.00,VWS V14.01,2013-08-02 18:02:00,
2013-08-02 13:07:00,83.8,72.1,29.91,NNW,330,2.0,7.0,68,0.00,,CLR,0.00,VWS V14.01,2013-08-02 18:07:00,
2013-08-02 13:10:00,83.8,72.1,29.91,West,270,1.0,7.0,68,0.00,,CLR,0.00,VWS V14.01,2013-08-02 18:10:00,
2013-08-02 13:12:00,83.5,71.8,29.91,West,264,1.0,7.0,68,0.00,,CLR,0.00,VWS V14.01,2013-08-02 18:12:00,
2013-08-02 13:17:00,82.8,72.0,29.91,West,280,1.0,7.0,70,0.00,,CLR,0.00,VWS V14.01,2013-08-02 18:17:00,
2013-08-02 13:20:00,82.7,71.9,29.91,SW,228,1.0,7.0,70,0.00,,CLR,0.00,VWS V14.01,2013-08-02 18:20:00,
2013-08-02 13:22:00,82.7,72.3,29.91,WNW,293,1.0,5.0,71,0.00,,SCT090,0.00,VWS V14.01,2013-08-02 18:22:00,
2013-08-02 13:27:00,82.6,72.2,29.91,NW,319,1.0,6.0,71,0.00,,SCT090,0.00,VWS V14.01,2013-08-02 18:27:00,
2013-08-02 13:30:00,82.5,72.2,29.91,NW,319,1.0,6.0,71,0.00,,CLR,0.00,VWS V14.01,2013-08-02 18:30:00,
2013-08-02 13:32:00,82.4,72.5,29.91,WNW,290,2.0,5.0,72,0.00,,SCT090,0.00,VWS V14.01,2013-08-02 18:32:00,
2013-08-02 13:38:00,82.4,73.3,29.91,WSW,256,0.0,5.0,74,0.00,,SCT090,0.00,VWS V14.01,2013-08-02 18:38:00,
2013-08-02 13:40:00,82.3,73.2,29.91,WSW,255,0.0,5.0,74,0.00,,CLR,0.00,VWS V14.01,2013-08-02 18:40:00,
2013-08-02 13:43:00,82.9,73.8,29.91,SSE,158,2.0,2.0,74,0.00,,BKN090,0.00,VWS V14.01,2013-08-02 18:43:00,
2013-08-02 13:48:00,82.8,72.4,29.91,West,260,3.0,6.0,71,0.00,,BKN090,0.00,VWS V14.01,2013-08-02 18:48:00,
2013-08-02 13:50:00,82.8,72.4,29.91,West,260,3.0,6.0,71,0.00,,CLR,0.00,VWS V14.01,2013-08-02 18:50:00,
2013-08-02 13:53:00,83.0,73.5,29.91,SE,131,1.0,5.0,73,0.00,,BKN090,0.00,VWS V14.01,2013-08-02 18:53:00,
2013-08-02 13:58:00,83.3,73.3,29.91,WNW,297,1.0,2.0,72,0.00,,BKN090,0.00,VWS V14.01,2013-08-02 18:58:00,
2013-08-02 14:00:00,83.3,73.3,29.91,WNW,295,2.0,5.0,72,0.00,,CLR,0.00,VWS V14.01,2013-08-02 19:00:00,
2013-08-02 14:03:00,83.6,73.6,29.91,WSW,248,5.0,6.0,72,0.00,,BKN090,0.00,VWS V14.01,2013-08-02 19:03:00,
2013-08-02 14:08:00,83.6,72.8,29.91,West,268,1.0,2.0,70,0.00,,BKN090,0.00,VWS V14.01,2013-08-02 19:08:00,
2013-08-02 14:10:00,83.6,72.8,29.91,West,269,2.0,6.0,70,0.00,,CLR,0.00,VWS V14.01,2013-08-02 19:10:00,
2013-08-02 14:13:00,84.0,72.3,29.90,SSW,201,2.0,6.0,68,0.00,,BKN090,0.00,VWS V14.01,2013-08-02 19:13:00,
2013-08-02 14:19:00,83.9,70.4,29.90,West,262,1.0,3.0,64,0.00,,BKN090,0.00,VWS V14.01,2013-08-02 19:19:00,
2013-08-02 14:20:00,84.0,70.5,29.90,East,90,2.0,6.0,64,0.00,,CLR,0.00,VWS V14.01,2013-08-02 19:20:00,
2013-08-02 14:24:00,84.0,71.4,29.90,SW,226,2.0,4.0,66,0.00,,SCT090,0.00,VWS V14.01,2013-08-02 19:24:00,
2013-08-02 14:29:00,84.6,72.4,29.90,NW,307,3.0,4.0,67,0.00,,SCT090,0.00,VWS V14.01,2013-08-02 19:29:00,
2013-08-02 14:30:00,84.5,72.3,29.90,WSW,255,0.0,5.0,67,0.00,,CLR,0.00,VWS V14.01,2013-08-02 19:30:00,
2013-08-02 14:34:00,84.7,71.6,29.90,West,270,2.0,5.0,65,0.00,,SCT090,0.00,VWS V14.01,2013-08-02 19:34:00,
2013-08-02 14:39:00,84.3,71.3,29.90,NW,314,1.0,2.0,65,0.00,,SCT090,0.00,VWS V14.01,2013-08-02 19:39:00,
2013-08-02 14:40:00,84.3,71.3,29.90,SW,226,1.0,7.0,65,0.00,,CLR,0.00,VWS V14.01,2013-08-02 19:40:00,
2013-08-02 14:44:00,83.9,70.9,29.90,WNW,295,0.0,8.0,65,0.00,,SCT100,0.00,VWS V14.01,2013-08-02 19:44:00,
2013-08-02 14:49:00,83.9,70.0,29.90,West,278,2.0,8.0,63,0.00,,SCT100,0.00,VWS V14.01,2013-08-02 19:49:00,
2013-08-02 14:50:00,83.9,70.9,29.90,WSW,245,8.0,8.0,65,0.00,,CLR,0.00,VWS V14.01,2013-08-02 19:50:00,
2013-08-02 14:55:00,83.4,69.9,29.90,SW,229,3.0,8.0,64,0.00,,SCT100,0.00,VWS V14.01,2013-08-02 19:55:00,
2013-08-02 15:00:00,83.0,71.4,29.90,WSW,252,1.0,1.0,68,0.00,,BKN060,0.00,VWS V14.01,2013-08-02 20:00:00,
2013-08-02 15:05:00,82.9,70.4,29.89,WSW,240,1.0,5.0,66,0.00,,BKN060,0.00,VWS V14.01,2013-08-02 20:05:00,
2013-08-02 15:10:00,82.7,69.8,29.89,West,266,3.0,7.0,65,0.00,,BKN060,0.00,VWS V14.01,2013-08-02 20:10:00,
2013-08-02 15:15:00,82.9,68.6,29.89,SW,214,5.0,7.0,62,0.00,,BKN060,0.00,VWS V14.01,2013-08-02 20:15:00,
2013-08-02 15:20:00,82.8,68.0,29.89,SW,233,0.0,4.0,61,0.00,,SCT065,0.00,VWS V14.01,2013-08-02 20:20:00,
2013-08-02 15:26:00,82.9,68.1,29.89,NE,44,0.0,7.0,61,0.00,,SCT065,0.00,VWS V14.01,2013-08-02 20:26:00,
2013-08-02 15:30:00,83.0,67.7,29.89,West,268,1.0,7.0,60,0.00,,CLR,0.00,VWS V14.01,2013-08-02 20:30:00,
2013-08-02 15:31:00,83.0,68.2,29.89,WSW,245,2.0,5.0,61,0.00,,SCT065,0.00,VWS V14.01,2013-08-02 20:31:00,
2013-08-02 15:36:00,83.0,68.7,29.89,WNW,282,1.0,5.0,62,0.00,,SCT065,0.00,VWS V14.01,2013-08-02 20:36:00,
2013-08-02 15:40:00,82.7,68.4,29.89,West,273,1.0,6.0,62,0.00,,CLR,0.00,VWS V14.01,2013-08-02 20:40:00,
2013-08-02 15:41:00,82.3,68.0,29.89,WNW,283,1.0,4.0,62,0.00,,SCT060,0.00,VWS V14.01,2013-08-02 20:41:00,
2013-08-02 15:47:00,81.9,68.1,29.89,SW,224,0.0,4.0,63,0.00,,SCT060,0.00,VWS V14.01,2013-08-02 20:47:00,
2013-08-02 15:50:00,81.8,68.4,29.89,WSW,257,2.0,4.0,64,0.00,,CLR,0.00,VWS V14.01,2013-08-02 20:50:00,
2013-08-02 15:52:00,81.7,68.8,29.89,WSW,253,1.0,3.0,65,0.00,,SCT060,0.00,VWS V14.01,2013-08-02 20:52:00,
2013-08-02 15:57:00,81.7,68.8,29.89,SSE,163,1.0,4.0,65,0.00,,SCT060,0.00,VWS V14.01,2013-08-02 20:57:00,
2013-08-02 16:00:00,81.8,68.9,29.89,WNW,283,1.0,6.0,65,0.00,,CLR,0.00,VWS V14.01,2013-08-02 21:00:00,
2013-08-02 16:02:00,82.1,69.2,29.89,West,269,1.0,3.0,65,0.00,,BKN050,0.00,VWS V14.01,2013-08-02 21:02:00,
2013-08-02 16:07:00,82.0,67.2,29.89,SW,235,1.0,6.0,61,0.00,,BKN050,0.00,VWS V14.01,2013-08-02 21:07:00,
2013-08-02 16:10:00,82.0,67.7,29.89,WSW,258,2.0,6.0,62,0.00,,CLR,0.00,VWS V14.01,2013-08-02 21:10:00,
2013-08-02 16:12:00,81.8,68.0,29.88,West,265,2.0,3.0,63,0.00,,BKN050,0.00,VWS V14.01,2013-08-02 21:12:00,
2013-08-02 16:17:00,81.8,68.4,29.88,West,263,3.0,4.0,64,0.00,,BKN050,0.00,VWS V14.01,2013-08-02 21:17:00,
2013-08-02 16:20:00,81.8,69.3,29.88,West,274,1.0,4.0,66,0.00,,CLR,0.00,VWS V14.01,2013-08-02 21:20:00,
2013-08-02 16:23:00,81.9,69.4,29.88,WSW,243,2.0,4.0,66,0.00,,BKN060,0.00,VWS V14.01,2013-08-02 21:23:00,
2013-08-02 16:28:00,82.2,68.8,29.88,SW,231,2.0,9.0,64,0.00,,BKN060,0.00,VWS V14.01,2013-08-02 21:28:00,
2013-08-02 16:30:00,82.2,69.3,29.88,SW,235,2.0,9.0,65,0.00,,CLR,0.00,VWS V14.01,2013-08-02 21:30:00,
2013-08-02 16:33:00,82.6,69.7,29.88,WSW,257,1.0,4.0,65,0.00,,BKN060,0.00,VWS V14.01,2013-08-02 21:33:00,
2013-08-02 16:38:00,82.6,69.7,29.88,West,265,2.0,6.0,65,0.00,,BKN060,0.00,VWS V14.01,2013-08-02 21:38:00,
2013-08-02 16:40:00,82.6,69.7,29.88,West,265,2.0,6.0,65,0.00,,CLR,0.00,VWS V14.01,2013-08-02 21:40:00,
2013-08-02 16:43:00,82.7,70.2,29.88,WNW,297,1.0,5.0,66,0.00,,BKN060,0.00,VWS V14.01,2013-08-02 21:43:00,
2013-08-02 16:48:00,82.5,69.1,29.87,WSW,256,1.0,1.0,64,0.00,,BKN060,0.00,VWS V14.01,2013-08-02 21:48:00,
2013-08-02 16:50:00,82.5,69.1,29.87,WSW,255,1.0,5.0,64,0.00,,CLR,0.00,VWS V14.01,2013-08-02 21:50:00,
2013-08-02 16:53:00,82.4,69.0,29.87,SW,221,5.0,6.0,64,0.00,,BKN060,0.00,VWS V14.01,2013-08-02 21:53:00,
2013-08-02 16:58:00,82.4,69.0,29.87,SW,229,1.0,3.0,64,0.00,,BKN060,0.00,VWS V14.01,2013-08-02 21:58:00,
2013-08-02 17:00:00,82.4,69.0,29.87,SSE,165,3.0,6.0,64,0.00,,CLR,0.00,VWS V14.01,2013-08-02 22:00:00,
2013-08-02 17:04:00,82.3,68.5,29.87,North,360,2.0,6.0,63,0.00,,SCT060,0.00,VWS V14.01,2013-08-02 22:04:00,
2013-08-02 17:09:00,82.3,68.9,29.88,WSW,246,2.0,2.0,64,0.00,,SCT060,0.00,VWS V14.01,2013-08-02 22:09:00,
2013-08-02 17:10:00,82.2,68.8,29.88,WNW,287,2.0,6.0,64,0.00,,CLR,0.00,VWS V14.01,2013-08-02 22:10:00,
2013-08-02 17:14:00,82.3,69.8,29.88,WSW,240,0.0,6.0,66,0.00,,SCT060,0.00,VWS V14.01,2013-08-02 22:14:00,
2013-08-02 17:19:00,82.3,70.3,29.88,SW,216,0.0,1.0,67,0.00,,SCT060,0.00,VWS V14.01,2013-08-02 22:19:00,
2013-08-02 17:20:00,82.3,69.8,29.88,WSW,258,1.0,6.0,66,0.00,,CLR,0.00,VWS V14.01,2013-08-02 22:20:00,
2013-08-02 17:24:00,82.3,69.8,29.88,SW,227,1.0,5.0,66,0.00,,BKN060,0.00,VWS V14.01,2013-08-02 22:24:00,
2013-08-02 17:29:00,82.3,70.3,29.88,WNW,293,1.0,2.0,67,0.00,,BKN060,0.00,VWS V14.01,2013-08-02 22:29:00,
2013-08-02 17:30:00,82.3,70.3,29.88,WSW,250,1.0,5.0,67,0.00,,CLR,0.00,VWS V14.01,2013-08-02 22:30:00,
2013-08-02 17:35:00,82.2,69.7,29.88,West,269,0.0,5.0,66,0.00,,BKN060,0.00,VWS V14.01,2013-08-02 22:35:00,
2013-08-02 17:39:00,82.1,69.6,29.88,West,276,1.0,6.0,66,0.00,,SCT060,0.00,VWS V14.01,2013-08-02 22:39:00,
2013-08-02 17:40:00,82.2,70.2,29.88,WSW,257,2.0,5.0,67,0.00,,CLR,0.00,VWS V14.01,2013-08-02 22:40:00,
2013-08-02 17:45:00,81.8,69.8,29.88,West,266,3.0,7.0,67,0.00,,SCT060,0.00,VWS V14.01,2013-08-02 22:45:00,
2013-08-02 17:50:00,81.8,69.3,29.88,WSW,242,1.0,6.0,66,0.00,,SCT060,0.00,VWS V14.01,2013-08-02 22:50:00,
2013-08-02 17:55:00,81.6,70.0,29.88,WSW,245,1.0,7.0,68,0.00,,SCT060,0.00,VWS V14.01,2013-08-02 22:55:00,
2013-08-02 18:00:00,81.6,69.6,29.88,WNW,294,2.0,5.0,67,0.00,,BKN075,0.00,VWS V14.01,2013-08-02 23:00:00,
2013-08-02 18:05:00,81.6,70.4,29.88,West,263,1.0,7.0,69,0.00,,BKN075,0.00,VWS V14.01,2013-08-02 23:05:00,
2013-08-02 18:10:00,81.6,70.9,29.88,WSW,238,0.0,3.0,70,0.00,,BKN075,0.00,VWS V14.01,2013-08-02 23:10:00,
2013-08-02 18:15:00,81.6,70.9,29.88,West,280,1.0,3.0,70,0.00,,BKN075,0.00,VWS V14.01,2013-08-02 23:15:00,
2013-08-02 18:20:00,81.6,70.9,29.88,WSW,243,2.0,3.0,70,0.00,,CLR,0.00,VWS V14.01,2013-08-02 23:20:00,
2013-08-02 18:21:00,81.4,70.7,29.88,West,260,0.0,3.0,70,0.00,,SCT075,0.00,VWS V14.01,2013-08-02 23:21:00,
2013-08-02 18:26:00,81.3,71.0,29.88,SSW,210,0.0,4.0,71,0.00,,SCT075,0.00,VWS V14.01,2013-08-02 23:26:00,
2013-08-02 18:30:00,81.2,70.9,29.88,SW,219,2.0,4.0,71,0.00,,CLR,0.00,VWS V14.01,2013-08-02 23:30:00,
2013-08-02 18:31:00,81.2,71.3,29.88,WSW,257,0.0,3.0,72,0.00,,SCT075,0.00,VWS V14.01,2013-08-02 23:31:00,
2013-08-02 18:36:00,81.3,71.4,29.89,WSW,257,2.0,3.0,72,0.00,,SCT075,0.00,VWS V14.01,2013-08-02 23:36:00,
2013-08-02 18:40:00,81.3,71.8,29.89,West,259,1.0,3.0,73,0.00,,CLR,0.00,VWS V14.01,2013-08-02 23:40:00,
2013-08-02 18:41:00,81.2,71.7,29.89,NW,312,1.0,2.0,73,0.00,,SCT110,0.00,VWS V14.01,2013-08-02 23:41:00,
2013-08-02 18:47:00,80.8,71.3,29.88,WNW,287,0.0,7.0,73,0.00,,SCT110,0.00,VWS V14.01,2013-08-02 23:47:00,
2013-08-02 18:50:00,80.7,71.2,29.88,West,263,2.0,7.0,73,0.00,,CLR,0.00,VWS V14.01,2013-08-02 23:50:00,
2013-08-02 18:52:00,80.5,70.7,29.88,West,271,1.0,5.0,72,0.00,,SCT110,0.00,VWS V14.01,2013-08-02 23:52:00,
2013-08-02 18:57:00,80.3,70.9,29.88,WSW,256,1.0,5.0,73,0.00,,SCT110,0.00,VWS V14.01,2013-08-02 23:57:00,
2013-08-02 19:00:00,80.3,70.9,29.88,WSW,245,3.0,5.0,73,0.00,,CLR,0.00,VWS V14.01,2013-08-03 00:00:00,
2013-08-02 19:02:00,80.2,71.6,29.88,SSE,164,0.0,5.0,75,0.00,,SCT110,0.00,VWS V14.01,2013-08-03 00:02:00,
2013-08-02 19:07:00,80.2,71.9,29.88,WNW,293,2.0,5.0,76,0.00,,SCT110,0.00,VWS V14.01,2013-08-03 00:07:00,
2013-08-02 19:10:00,80.2,72.3,29.88,WSW,243,1.0,5.0,77,0.00,,CLR,0.00,VWS V14.01,2013-08-03 00:10:00,
2013-08-02 19:12:00,80.1,72.2,29.88,WSW,251,1.0,6.0,77,0.00,,SCT110,0.00,VWS V14.01,2013-08-03 00:12:00,
2013-08-02 19:18:00,79.6,72.1,29.88,West,269,0.0,8.0,78,0.00,,SCT110,0.00,VWS V14.01,2013-08-03 00:18:00,
2013-08-02 19:20:00,79.6,72.1,29.88,West,271,1.0,8.0,78,0.00,,CLR,0.00,VWS V14.01,2013-08-03 00:20:00,
2013-08-02 19:23:00,79.2,71.8,29.89,WNW,282,2.0,3.0,78,0.00,,CLR,0.00,VWS V14.01,2013-08-03 00:23:00,
2013-08-02 19:28:00,78.8,71.7,29.89,West,266,1.0,5.0,79,0.00,,CLR,0.00,VWS V14.01,2013-08-03 00:28:00,
2013-08-02 19:30:00,78.8,71.7,29.89,West,271,1.0,5.0,79,0.00,,CLR,0.00,VWS V14.01,2013-08-03 00:30:00,
2013-08-02 19:33:00,78.4,71.3,29.89,West,264,0.0,6.0,79,0.00,,CLR,0.00,VWS V14.01,2013-08-03 00:33:00,
2013-08-02 19:38:00,78.1,71.4,29.89,WSW,247,2.0,2.0,80,0.00,,CLR,0.00,VWS V14.01,2013-08-03 00:38:00,
2013-08-02 19:40:00,78.1,71.4,29.89,WSW,238,0.0,6.0,80,0.00,,CLR,0.00,VWS V14.01,2013-08-03 00:40:00,
2013-08-02 19:43:00,77.7,71.4,29.89,West,273,1.0,7.0,81,0.00,,SCT110,0.00,VWS V14.01,2013-08-03 00:43:00,
2013-08-02 19:48:00,77.4,71.1,29.89,WSW,246,1.0,1.0,81,0.00,,SCT110,0.00,VWS V14.01,2013-08-03 00:48:00,
2013-08-02 19:50:00,77.5,71.2,29.89,SSW,193,0.0,7.0,81,0.00,,CLR,0.00,VWS V14.01,2013-08-03 00:50:00,
2013-08-02 19:53:00,77.2,71.3,29.89,West,278,0.0,6.0,82,0.00,,SCT110,0.00,VWS V14.01,2013-08-03 00:53:00,
2013-08-02 19:58:00,77.0,71.1,29.90,WSW,256,0.0,1.0,82,0.00,,SCT110,0.00,VWS V14.01,2013-08-03 00:58:00,
2013-08-02 20:00:00,77.0,71.1,29.89,West,269,1.0,6.0,82,0.00,,CLR,0.00,VWS V14.01,2013-08-03 01:00:00,
2013-08-02 20:04:00,76.7,70.8,29.90,NW,305,0.0,5.0,82,0.00,,SCT110,0.00,VWS V14.01,2013-08-03 01:04:00,
2013-08-02 20:09:00,76.6,70.7,29.90,WNW,295,0.0,2.0,82,0.00,,SCT110,0.00,VWS V14.01,2013-08-03 01:09:00,
2013-08-02 20:10:00,76.7,70.8,29.90,WNW,295,2.0,7.0,82,0.00,,CLR,0.00,VWS V14.01,2013-08-03 01:10:00,
2013-08-02 20:14:00,76.5,71.0,29.90,West,276,0.0,3.0,83,0.00,,SCT110,0.00,VWS V14.01,2013-08-03 01:14:00,
2013-08-02 20:19:00,76.4,70.9,29.90,West,276,1.0,6.0,83,0.00,,SCT110,0.00,VWS V14.01,2013-08-03 01:19:00,
2013-08-02 20:20:00,76.4,70.9,29.90,WNW,298,0.0,5.0,83,0.00,,CLR,0.00,VWS V14.01,2013-08-03 01:20:00,
2013-08-02 20:24:00,76.4,71.2,29.90,WSW,256,1.0,6.0,84,0.00,,SCT065,0.00,VWS V14.01,2013-08-03 01:24:00,
2013-08-02 20:29:00,76.3,71.5,29.89,West,280,1.0,7.0,85,0.00,,SCT065,0.00,VWS V14.01,2013-08-03 01:29:00,
2013-08-02 20:30:00,76.3,71.5,29.90,West,259,2.0,6.0,85,0.00,,CLR,0.00,VWS V14.01,2013-08-03 01:30:00,
2013-08-02 20:34:00,76.2,71.7,29.90,West,267,1.0,7.0,86,0.00,,SCT065,0.00,VWS V14.01,2013-08-03 01:34:00,
2013-08-02 20:39:00,76.1,71.9,29.90,WSW,243,0.0,2.0,87,0.00,,SCT065,0.00,VWS V14.01,2013-08-03 01:39:00,
2013-08-02 20:40:00,76.1,71.6,29.90,West,260,1.0,7.0,86,0.00,,CLR,0.00,VWS V14.01,2013-08-03 01:40:00,
2013-08-02 20:44:00,76.1,71.9,29.90,WSW,258,1.0,5.0,87,0.00,,RA,0.00,VWS V14.01,2013-08-03 01:44:00,
2013-08-02 20:49:00,76.0,72.2,29.90,WSW,242,2.0,8.0,88,0.00,,RA,0.00,VWS V14.01,2013-08-03 01:49:00,
2013-08-02 20:50:00,76.0,71.9,29.90,SW,214,1.0,5.0,87,0.00,,CLR,0.00,VWS V14.01,2013-08-03 01:50:00,
2013-08-02 20:55:00,76.0,72.2,29.89,West,267,1.0,8.0,88,0.00,,RA,0.00,VWS V14.01,2013-08-03 01:55:00,
2013-08-02 21:00:00,76.0,72.2,29.89,West,263,1.0,3.0,88,0.00,,OVC044,0.00,VWS V14.01,2013-08-03 02:00:00,
2013-08-02 21:05:00,75.9,72.4,29.90,SW,232,3.0,6.0,89,0.00,,OVC044,0.00,VWS V14.01,2013-08-03 02:05:00,
2013-08-02 21:10:00,75.9,72.4,29.90,West,269,2.0,4.0,89,0.00,,OVC044,0.00,VWS V14.01,2013-08-03 02:10:00,
2013-08-02 21:15:00,75.8,72.7,29.90,West,274,0.0,4.0,90,0.00,,OVC044,0.00,VWS V14.01,2013-08-03 02:15:00,
2013-08-02 21:20:00,75.7,72.6,29.91,WSW,255,2.0,3.0,90,0.00,,,0.00,VWS V14.01,2013-08-03 02:20:00,
2013-08-02 21:25:00,75.6,72.5,29.92,West,277,2.0,7.0,90,0.00,,,0.00,VWS V14.01,2013-08-03 02:25:00,
2013-08-02 21:30:00,75.6,72.1,29.92,SW,226,2.0,7.0,89,0.00,,CLR,0.00,VWS V14.01,2013-08-03 02:30:00,
2013-08-02 21:31:00,75.6,72.1,29.92,SW,218,3.0,5.0,89,0.00,,,0.00,VWS V14.01,2013-08-03 02:31:00,
2013-08-02 21:36:00,75.4,72.3,29.93,NW,312,1.0,5.0,90,0.03,,,0.03,VWS V14.01,2013-08-03 02:36:00,
2013-08-02 21:40:00,75.3,72.2,29.93,WSW,242,4.0,5.0,90,0.05,,CLR,0.05,VWS V14.01,2013-08-03 02:40:00,
2013-08-02 21:41:00,75.0,72.2,29.92,WSW,256,0.0,4.0,91,0.07,,OVC075,0.07,VWS V14.01,2013-08-03 02:41:00,
2013-08-02 21:46:00,74.5,71.7,29.93,WSW,256,0.0,4.0,91,0.10,,OVC075,0.10,VWS V14.01,2013-08-03 02:46:00,
2013-08-02 21:50:00,74.4,71.9,29.93,WSW,256,0.0,4.0,92,0.11,,CLR,0.11,VWS V14.01,2013-08-03 02:50:00,
2013-08-02 21:51:00,74.2,71.7,29.93,WSW,256,0.0,0.0,92,0.13,,OVC075,0.13,VWS V14.01,2013-08-03 02:51:00,
2013-08-02 21:56:00,74.0,71.8,29.93,WSW,256,0.0,0.0,93,0.13,,OVC075,0.13,VWS V14.01,2013-08-03 02:56:00,
2013-08-02 22:00:00,73.9,71.8,29.93,WSW,256,0.0,0.0,93,0.14,,CLR,0.14,VWS V14.01,2013-08-03 03:00:00,
2013-08-02 22:01:00,73.8,71.7,29.93,WSW,249,0.0,1.0,93,0.15,,OVC085,0.15,VWS V14.01,2013-08-03 03:01:00,
2013-08-02 22:07:00,73.5,71.4,29.93,West,269,0.0,5.0,93,0.22,,OVC085,0.22,VWS V14.01,2013-08-03 03:07:00,
2013-08-02 22:10:00,73.3,71.2,29.94,NW,304,0.0,5.0,93,0.23,,CLR,0.23,VWS V14.01,2013-08-03 03:10:00,
2013-08-02 22:12:00,73.0,70.9,29.94,NNW,344,0.0,2.0,93,0.32,,OVC085,0.32,VWS V14.01,2013-08-03 03:12:00,
2013-08-02 22:17:00,72.4,70.3,29.94,WSW,252,1.0,3.0,93,0.49,,OVC085,0.49,VWS V14.01,2013-08-03 03:17:00,
2013-08-02 22:20:00,72.3,70.5,29.94,SW,236,4.0,4.0,94,0.50,,CLR,0.50,VWS V14.01,2013-08-03 03:20:00,
2013-08-02 22:22:00,72.0,70.2,29.94,WSW,245,0.0,4.0,94,0.55,,BKN085,0.55,VWS V14.01,2013-08-03 03:22:00,
2013-08-02 22:28:00,71.8,70.3,29.94,WNW,290,0.0,4.0,95,0.61,,BKN085,0.61,VWS V14.01,2013-08-03 03:28:00,
2013-08-02 22:30:00,71.8,70.3,29.94,WNW,291,0.0,4.0,95,0.61,,CLR,0.61,VWS V14.01,2013-08-03 03:30:00,
2013-08-02 22:33:00,71.6,70.1,29.94,West,269,1.0,4.0,95,0.64,,BKN085,0.64,VWS V14.01,2013-08-03 03:33:00,
2013-08-02 22:38:00,71.5,70.0,29.94,NW,309,0.0,4.0,95,0.65,,BKN085,0.65,VWS V14.01,2013-08-03 03:38:00,
2013-08-02 22:40:00,71.5,70.0,29.94,NW,309,0.0,4.0,95,0.65,,CLR,0.65,VWS V14.01,2013-08-03 03:40:00,
2013-08-02 22:43:00,71.4,70.2,29.94,West,263,2.0,2.0,96,0.60,,BKN075,0.65,VWS V14.01,2013-08-03 03:43:00,
2013-08-02 22:48:00,71.2,70.0,29.94,West,276,0.0,0.0,96,0.56,,BKN075,0.67,VWS V14.01,2013-08-03 03:48:00,
2013-08-02 22:50:00,71.2,70.0,29.94,West,276,0.0,2.0,96,0.62,,CLR,0.67,VWS V14.01,2013-08-03 03:50:00,
2013-08-02 22:53:00,71.1,69.9,29.94,West,276,0.0,0.0,96,0.56,,BKN075,0.67,VWS V14.01,2013-08-03 03:53:00,
2013-08-02 22:58:00,71.0,69.8,29.94,West,276,0.0,0.0,96,0.53,,BKN075,0.67,VWS V14.01,2013-08-03 03:58:00,
2013-08-02 23:00:00,71.0,69.8,29.94,West,276,0.0,0.0,96,0.56,,CLR,0.67,VWS V14.01,2013-08-03 04:00:00,
2013-08-02 23:01:00,71.0,69.8,29.95,West,276,0.0,1.0,96,0.53,,BKN075,0.67,VWS V14.01,2013-08-03 04:01:00,
2013-08-02 23:02:00,71.0,69.8,29.95,West,276,0.0,1.0,96,0.53,,BKN075,0.67,VWS V14.01,2013-08-03 04:02:00,
2013-08-02 23:03:00,71.0,69.8,29.95,West,276,0.0,1.0,96,0.53,,BKN075,0.67,VWS V14.01,2013-08-03 04:03:00,
2013-08-02 23:04:00,71.0,69.8,29.95,West,276,0.0,1.0,96,0.53,,BKN075,0.67,VWS V14.01,2013-08-03 04:04:00,
2013-08-02 23:09:00,71.1,69.9,29.95,West,276,0.0,0.0,96,0.44,,BKN075,0.67,VWS V14.01,2013-08-03 04:09:00,
2013-08-02 23:10:00,71.1,69.9,29.95,West,276,0.0,1.0,96,0.53,,CLR,0.67,VWS V14.01,2013-08-03 04:10:00,
2013-08-02 23:15:00,71.1,69.9,29.94,West,276,0.0,0.0,96,0.44,,BKN075,0.67,VWS V14.01,2013-08-03 04:15:00,
2013-08-02 23:20:00,71.0,69.8,29.94,West,276,0.0,0.0,96,0.17,,-RA,0.67,VWS V14.01,2013-08-03 04:20:00,
2013-08-02 23:25:00,71.0,70.1,29.95,West,276,0.0,0.0,97,0.17,,-RA,0.67,VWS V14.01,2013-08-03 04:25:00,
2013-08-02 23:30:00,71.0,70.1,29.95,West,276,0.0,0.0,97,0.06,,-RA,0.67,VWS V14.01,2013-08-03 04:30:00,
2013-08-02 23:35:00,71.0,70.1,29.95,West,276,0.0,0.0,97,0.06,,-RA,0.67,VWS V14.01,2013-08-03 04:35:00,
2013-08-02 23:40:00,71.0,70.1,29.95,West,274,0.0,0.0,97,0.02,,BKN120,0.67,VWS V14.01,2013-08-03 04:40:00,
2013-08-02 23:45:00,70.9,70.0,29.96,West,274,0.0,0.0,97,0.02,,BKN120,0.67,VWS V14.01,2013-08-03 04:45:00,
2013-08-02 23:50:00,70.9,70.0,29.96,West,274,0.0,0.0,97,0.02,,CLR,0.67,VWS V14.01,2013-08-03 04:50:00,
2013-08-02 23:51:00,70.9,70.0,29.96,West,275,0.0,0.0,97,0.00,,BKN120,0.67,VWS V14.01,2013-08-03 04:51:00,
2013-08-02 23:56:00,70.9,70.0,29.96,West,274,0.0,0.0,97,0.00,,BKN120,0.67,VWS V14.01,2013-08-03 04:56:00,